Theta_e
315 314 314 314 312 313 314 314 314 314 315 317 317 316 315 316 317 318 318 334 336 335 333 335 336 342 342 341 339 338 339 341 344 342 345 349 349 350 350 350 347 345 344 344
315 315 315 315 315 314 314 314 314 314 316 318 317 318 316 317 319 317 323 333 335 334 340 340 342 349 348 347 345 340 343 346 345 348 347 347 342 346 348 348 350 350 349 345
315 316 318 318 317 317 317 317 318 318 319 318 318 317 317 317 318 317 319 331 333 339 342 343 348 347 347 347 349 350 352 347 347 349 347 351 348 349 349 350 350 351 350 349
316 317 319 319 319 318 317 318 319 320 318 317 317 317 316 318 315 321 324 331 331 339 341 346 345 343 343 343 346 349 354 359 353 353 353 353 352 354 355 355 354 354 352 350
317 317 317 318 318 318 319 319 319 319 317 318 318 315 315 316 321 328 326 332 340 339 340 342 340 337 337 338 339 344 348 350 352 355 354 354 353 353 353 353 353 354 351 348
316 316 318 320 322 321 320 319 319 318 314 318 317 316 320 331 330 328 326 340 337 336 334 334 333 333 332 333 334 336 337 338 343 345 345 346 347 347 348 348 348 350 351 349
318 319 320 319 318 320 318 318 322 322 320 321 319 318 334 329 326 325 327 327 330 333 332 330 330 331 330 331 331 331 332 333 335 337 338 335 336 339 341 341 344 346 349 351
319 321 317 317 320 322 321 318 323 329 325 325 321 329 336 328 325 323 322 323 322 324 329 329 329 330 331 330 329 329 328 328 328 330 332 335 334 333 335 337 338 341 345 346
317 319 317 317 321 321 321 322 321 326 327 326 322 336 332 329 328 325 324 322 322 320 318 318 321 321 327 329 328 329 330 330 328 327 326 327 327 330 333 335 336 336 337 338
316 316 317 317 319 320 321 320 324 322 328 333 327 328 335 333 330 327 324 322 322 320 318 316 315 315 315 315 316 319 318 319 325 326 326 326 327 325 324 326 330 334 336 334
314 316 316 316 318 321 322 326 326 323 325 331 332 329 333 331 328 327 324 322 322 322 319 317 315 313 314 314 314 314 314 315 316 317 318 318 320 324 324 323 322 328 330 335
314 313 316 317 322 323 321 323 323 327 328 326 331 330 328 327 325 325 324 322 321 321 321 319 318 314 313 313 313 313 313 313 313 314 315 316 316 317 318 321 322 319 320 328
311 309 311 313 313 316 321 322 324 322 321 325 328 328 324 326 325 324 325 322 322 321 320 319 318 315 313 313 313 313 313 313 313 313 313 313 314 314 315 317 322 321 320 321
312 310 311 314 314 314 317 318 322 321 323 325 325 323 326 326 327 322 322 322 322 321 320 318 316 310 312 312 312 312 312 313 312 312 312 312 312 313 313 313 316 319 319 319
309 311 314 316 318 317 317 318 317 320 319 320 318 323 323 324 323 323 322 321 321 320 317 312 310 310 311 312 312 312 311 311 311 312 312 312 312 312 312 312 314 316 320 320
310 315 318 318 317 316 316 315 317 317 319 317 314 322 318 319 318 320 321 320 318 313 312 311 310 311 310 310 310 309 309 309 310 310 311 311 312 312 312 313 314 313 318 322
311 311 311 314 316 315 315 316 315 313 317 313 312 313 312 313 315 314 313 313 313 312 311 310 310 309 309 309 309 309 310 310 309 309 308 309 309 309 310 311 313 314 313 318
310 309 309 312 312 316 313 313 315 318 317 315 314 313 314 313 311 310 310 311 311 310 309 309 309 309 309 309 309 308 309 309 307 307 308 309 308 309 310 310 310 311 313 314
308 308 310 310 313 313 315 316 312 311 317 316 315 316 314 313 312 312 310 309 309 308 308 309 309 309 309 309 308 308 308 308 308 308 308 308 309 309 309 309 309 309 310 310
310 309 311 309 312 312 313 316 315 310 317 315 313 312 312 312 314 312 310 309 308 309 309 308 309 309 309 308 309 308 308 308 308 308 308 309 309 310 310 311 311 310 310 312
311 310 310 306 308 310 312 315 315 314 310 314 311 310 310 310 309 309 308 308 309 309 310 309 308 309 308 307 307 307 308 308 309 309 309 309 309 310 310 311 311 312 311 311
313 310 311 308 309 312 314 315 316 310 313 311 311 310 310 309 309 309 308 308 308 308 309 308 308 308 308 307 307 307 307 307 307 309 309 310 311 310 311 311 311 312 312 312
313 311 312 311 310 310 314 315 313 314 314 310 309 308 307 309 308 308 307 307 307 307 307 307 308 307 307 307 308 307 308 308 309 309 309 310 309 310 310 310 311 312 312 312
310 314 311 312 312 313 312 313 312 312 313 310 309 308 307 308 307 307 304 304 305 306 307 307 307 306 306 307 307 307 309 309 308 310 310 309 310 310 310 309 310 310 311 311
307 309 311 310 310 311 314 314 313 311 310 310 308 307 306 305 304 304 303 303 304 306 305 305 306 306 307 307 307 307 308 309 310 309 309 309 309 308 308 308 309 310 310 310
305 306 306 306 309 308 310 312 312 311 310 308 307 305 303 303 304 304 302 303 304 304 305 305 305 306 306 306 307 308 308 309 309 308 308 307 307 308 308 308 309 308 307 309
Wind_Speed
3 3 5 9 7 8 5 6 11 16 16 4 14 9 14 9 5 5 8 13 11 13 12 20 18 19 19 23 27 31 36 31 30 35 33 28 23 23 20 18 21 24 29 30
5 5 12 7 8 7 9 12 12 12 11 4 7 9 7 4 4 7 10 15 16 11 11 16 21 25 21 15 24 31 27 21 26 30 36 28 33 29 21 20 17 16 18 27
5 8 6 5 9 11 14 6 9 9 10 3 3 7 6 8 3 4 11 6 8 17 16 13 17 18 25 29 25 17 18 27 32 27 27 14 19 21 21 21 20 19 18 20
5 5 4 9 8 6 5 10 12 13 2 7 3 8 3 6 8 7 9 16 11 11 12 16 16 18 23 23 29 23 19 18 19 18 22 23 21 21 21 19 19 19 23 22
9 7 8 7 6 10 9 10 9 13 6 1 2 3 8 4 10 15 7 10 12 12 14 14 16 22 23 29 29 28 25 22 19 12 8 5 5 5 5 4 4 13 20 22
7 7 2 1 3 6 8 8 7 2 2 6 6 6 4 5 8 14 2 8 10 13 14 13 20 23 26 30 30 29 27 26 21 18 17 13 10 9 8 8 10 9 10 19
5 5 4 12 8 9 11 8 5 5 3 7 3 4 5 2 11 16 16 12 10 5 10 9 11 17 22 27 26 28 28 25 23 23 21 20 17 15 14 13 9 7 7 10
4 6 8 8 4 4 5 4 4 2 4 10 7 5 7 6 13 19 17 15 17 15 6 8 11 15 20 23 23 25 28 27 24 22 19 16 18 19 17 15 12 8 5 6
5 4 11 9 3 3 5 2 2 6 4 5 6 5 6 2 15 18 18 19 18 13 15 14 18 21 20 21 20 24 24 22 19 18 17 17 16 17 16 14 14 14 11 9
2 5 3 6 5 4 5 2 2 4 3 6 6 5 5 6 10 16 17 15 15 14 15 13 16 18 21 27 31 28 27 25 18 15 15 16 15 16 16 17 19 16 16 16
2 3 6 5 4 6 4 3 5 1 2 4 1 6 2 8 12 17 18 12 12 12 9 13 17 19 21 25 32 29 28 28 25 20 17 17 17 16 16 17 16 16 16 17
1 4 1 4 4 6 5 5 4 4 3 4 4 4 8 4 9 14 19 20 13 9 6 7 15 12 15 19 23 25 21 22 22 22 22 23 21 22 20 18 15 16 16 16
2 2 3 7 5 3 4 3 3 4 3 5 4 4 7 10 5 8 14 15 14 12 9 9 12 12 13 18 20 19 19 18 18 19 20 21 23 25 27 23 15 15 15 13
7 3 6 5 7 5 6 6 9 7 3 3 5 6 5 13 4 7 8 12 13 12 12 8 9 4 13 15 16 14 12 11 13 16 19 22 21 25 26 26 24 21 15 12
4 5 3 4 6 6 10 9 9 7 10 5 10 9 9 13 10 10 9 7 8 9 5 8 6 8 11 14 14 11 12 12 15 17 17 19 22 23 24 26 26 25 16 12
3 3 2 2 5 6 10 14 15 11 14 8 6 9 7 7 7 8 13 11 6 13 7 7 6 11 10 9 9 10 13 13 14 15 16 17 18 20 23 26 23 24 23 13
1 3 2 4 4 7 6 3 7 5 7 4 1 6 3 11 12 12 13 13 10 8 6 7 6 8 7 8 10 14 13 7 11 14 17 18 20 21 22 23 24 23 25 20
5 3 3 3 4 2 6 12 8 11 8 10 4 7 12 14 7 9 7 10 8 7 7 5 7 8 10 11 12 12 13 15 17 17 17 15 17 17 18 20 21 21 21 23
9 5 1 2 2 6 7 4 4 3 5 7 10 10 10 11 12 7 5 5 6 6 8 10 6 3 3 6 9 10 14 17 17 20 19 21 21 22 21 20 23 23 22 23
5 4 5 3 2 4 5 6 4 3 0 4 6 6 5 3 4 2 1 4 6 7 4 4 7 5 5 6 5 7 13 15 16 19 20 21 21 22 23 25 25 22 22 20
2 2 6 3 3 6 6 9 5 2 6 3 5 6 4 5 3 3 5 6 4 4 5 3 6 5 4 5 7 8 11 15 17 19 21 21 21 23 23 23 26 25 23 22
4 4 3 2 2 6 5 3 1 4 1 5 3 2 5 6 6 3 3 2 0 2 4 7 5 4 8 10 12 15 14 17 19 19 20 21 20 21 21 22 23 21 22 24
0 5 3 5 4 3 3 1 4 3 0 2 5 4 6 5 4 3 1 3 4 7 4 6 3 7 12 15 15 17 20 22 23 22 21 18 22 19 21 20 21 23 22 21
5 3 3 3 4 3 3 3 1 6 6 4 5 5 5 4 3 4 4 4 7 9 10 12 10 10 15 16 17 20 17 20 22 19 16 16 16 17 15 17 18 20 20 19
4 2 3 4 6 5 4 7 4 6 7 6 5 4 4 5 5 4 3 5 7 7 12 11 14 13 15 17 20 22 21 19 15 13 13 12 13 16 19 20 19 17 17 20
4 6 2 5 7 5 6 5 6 6 5 5 5 6 7 7 4 6 5 9 12 14 16 13 15 16 16 21 20 19 17 11 10 13 15 16 16 18 18 19 20 21 21 20
Wind_Direction
305 73 245 245 218 230 241 255 268 279 280 281 290 286 276 222 159 207 124 136 131 124 143 150 164 185 201 197 206 210 200 195 196 202 208 199 191 201 204 208 216 224 225 224
10 265 254 242 259 234 249 256 268 277 273 231 305 304 303 275 183 176 141 140 137 129 127 139 128 122 127 127 204 217 218 215 212 197 200 201 219 231 236 231 234 238 234 229
184 249 290 234 268 270 269 250 276 249 292 223 323 319 337 313 201 155 137 119 123 138 135 113 102 92 85 87 98 113 197 220 213 208 217 209 212 232 242 249 248 250 250 239
251 272 273 296 292 263 261 258 264 271 286 279 131 276 292 279 311 37 151 154 148 142 120 121 114 94 86 77 85 88 92 154 195 209 209 210 216 228 235 242 251 254 248 236
255 285 297 298 277 316 291 280 270 278 253 255 238 101 277 2 360 354 276 146 132 122 114 108 103 105 97 90 83 84 85 89 107 126 125 153 103 78 53 39 346 255 240 231
244 280 50 14 325 9 330 349 341 312 134 256 238 140 13 11 331 316 180 95 96 96 91 85 89 92 87 89 89 86 80 72 77 88 78 72 60 47 33 13 25 8 269 249
333 3 7 18 3 351 38 41 346 330 336 250 355 85 83 66 49 35 42 30 19 48 82 87 88 82 78 79 80 82 81 75 71 68 65 59 58 53 43 33 26 356 353 274
46 336 23 359 14 322 331 119 143 218 341 308 287 182 160 135 84 63 44 42 46 24 8 75 79 83 90 88 83 79 76 69 62 59 59 54 49 52 49 33 28 18 338 301
27 301 337 21 352 64 312 330 183 145 163 325 287 108 167 152 73 63 47 37 45 42 49 52 53 57 72 71 70 70 65 66 60 57 51 48 43 39 37 33 31 22 5 341
308 299 315 339 3 58 97 335 358 27 170 209 269 236 151 166 109 90 60 42 27 2 26 37 40 60 69 66 61 67 61 58 53 44 41 32 25 21 16 12 14 10 6 356
80 107 302 10 344 273 5 67 73 135 177 226 131 292 351 169 152 128 115 75 36 325 40 24 3 55 56 60 64 56 48 45 38 29 26 24 17 7 1 360 358 0 357 351
235 127 323 286 326 108 129 158 141 158 200 310 297 246 1 249 159 143 135 130 146 215 28 3 326 5 54 60 60 60 46 30 22 15 13 11 6 3 357 351 343 350 345 349
165 29 13 348 327 349 85 198 169 115 96 206 164 279 348 300 156 138 144 164 180 179 185 188 234 265 82 74 64 52 38 23 8 356 354 349 350 355 352 345 331 326 333 340
90 137 160 202 225 250 294 283 192 176 177 211 221 253 203 263 192 156 167 175 180 192 199 199 225 183 92 77 68 51 31 21 1 343 341 338 340 342 346 348 344 330 308 321
99 189 215 247 278 300 302 316 300 207 231 195 271 210 242 202 199 190 179 191 191 211 167 161 152 108 84 66 57 55 42 22 6 359 342 330 329 332 336 341 348 342 310 296
4 272 277 262 275 330 316 296 282 275 257 272 251 204 218 151 144 189 185 186 118 126 129 130 101 87 84 67 46 20 3 355 345 337 339 347 351 351 355 354 346 338 349 298
227 152 48 271 321 329 312 273 289 69 13 292 115 220 130 81 100 111 106 122 118 115 104 87 106 110 82 33 11 4 355 358 345 338 327 323 328 336 343 349 356 351 341 343
192 138 146 259 2 261 238 309 105 94 24 3 46 82 108 109 102 93 93 107 111 107 91 86 66 30 7 359 354 348 343 333 334 339 337 330 329 333 336 334 340 344 345 341
189 138 241 150 197 285 307 359 4 357 4 1 74 89 107 119 88 50 116 119 131 126 119 134 128 93 342 308 326 331 328 324 322 326 330 331 330 330 326 326 326 323 325 326
138 141 159 142 161 240 249 296 333 60 97 307 89 83 100 161 71 227 169 108 99 108 110 146 167 177 192 192 208 277 303 306 306 305 307 308 311 317 315 318 319 317 318 317
65 64 184 155 208 281 258 291 309 175 232 162 125 134 123 100 166 159 87 67 61 8 325 278 303 257 220 284 291 292 297 300 309 305 301 306 303 302 305 311 312 309 308 309
183 149 207 105 143 279 356 324 205 237 191 129 109 97 91 100 110 108 100 102 90 328 311 317 307 253 301 317 315 309 307 310 306 307 306 300 299 302 302 303 308 308 306 305
255 175 183 175 227 219 333 191 218 123 141 82 106 96 102 73 32 16 302 315 326 322 322 326 341 320 317 320 312 306 314 314 317 310 305 299 301 299 304 306 307 307 308 304
333 158 186 76 261 196 273 244 324 146 127 137 118 95 79 89 20 335 18 28 22 18 7 346 347 337 325 320 315 316 319 319 310 305 302 303 303 308 314 315 304 309 305 298
222 328 238 251 282 317 216 198 196 147 127 115 96 107 85 56 25 58 349 337 344 336 335 343 337 344 324 325 322 325 319 314 302 299 305 306 309 312 311 313 310 310 310 303
198 212 166 238 241 193 243 206 169 142 135 131 105 72 71 67 39 23 5 13 7 358 341 350 342 330 331 329 334 327 326 312 310 316 313 314 317 317 319 314 308 310 314 317